Regional Weather Roundup
Issued by NWS

Home | Current Version | Previous Version | Text Only | Print | Product List | Glossary Off
Versions: 1 2 3 4 5 6 7 8 9 10 11 12 13 14 15 16 17 18 19 20 21 22 23 24 25 26 27 28 29 30 31 32 33 34 35 36 37 38 39 40 41 42 43 44 45 46 47 48 49 50

000
ASUS43 KMKX 211621
RWRWI

WISCONSIN REGIONAL WEATHER ROUNDUP
NATIONAL WEATHER SERVICE MILWAUKEE/SULLIVAN WI
1100 AM CDT MON AUG 21 2017

NOTE: "FAIR" INDICATES FEW OR NO CLOUDS BELOW 12,000 FEET WITH NO
SIGNIFICANT WEATHER AND/OR OBSTRUCTIONS TO VISIBILITY.

WIZ001-002-006>008-014>016-023>028-211700-
NORTHWEST WISCONSIN

CITY           SKY/WX    TMP DP  RH WIND       PRES   REMARKS
SUPERIOR ARPT    N/A     67  59  75 W5        30.05R
ASHLAND        MOSUNNY   72  55  55 VRB5      30.03F
HAYWARD        SUNNY     73  57  57 SE6       30.03F
SIREN          MOSUNNY   73  58  57 SE3       30.01F
CUMBERLAND     MOSUNNY   72  57  60 E5        30.01F
RICE LAKE      MOSUNNY   73  61  64 E9        30.01F
CHETEK         MOSUNNY   72  64  76 SE9       30.00F
LADYSMITH      CLOUDY    74  61  63 SE5       30.05F
EAU CLAIRE     CLOUDY    69  65  86 E6        30.00F
MENOMONIE      PTSUNNY   67  67  99 E6        30.01S
NEW RICHMOND   CLOUDY    74  63  66 S3        30.00F
OSCEOLA        CLOUDY    74  62  65 CALM      30.03S
$$

WIZ003>005-009-010-017-018-211700-
NORTH CENTRAL WISCONSIN

CITY           SKY/WX    TMP DP  RH WIND       PRES   REMARKS
MANITOWISH WTR SUNNY     73  52  48 E5        30.05F
ARBOR VITAE    MOSUNNY   74  56  52 SE6       30.05F
WOODRUFF       MOSUNNY   74  56  52 SE6       30.05F
RHINELANDER    MOSUNNY   74  58  57 SE6       30.07F
EAGLE RIVER    MOSUNNY   73  52  47 S3        30.06F
LAND O LAKES   SUNNY     73  50  44 CALM      30.09F
PHILLIPS       MOSUNNY   73  60  64 SE6       30.03F
TOMAHAWK         N/A     71  60  67 CALM      30.07F
MEDFORD        CLOUDY    67  61  80 CALM      30.05F
MERRILL        CLOUDY    72  63  73 S3        30.06F
$$

WIZ029-030-035-036-043>047-211700-
CENTRAL WISCONSIN

CITY           SKY/WX    TMP DP  RH WIND       PRES   REMARKS
WAUSAU         CLOUDY    72  66  81 NE5       30.04F
MOSINEE        MOSUNNY   72  72 100 E5        30.06F
MARSHFIELD     PTSUNNY   77  67  71 VRB3      30.05S
STEVENS POINT  CLOUDY    73  69  86 E6        30.05F
WAUPACA        CLOUDY    76  70  80 S5        30.05F
WAUTOMA        CLOUDY    74  68  81 S7        30.07F
WISC RAPIDS    CLOUDY    77  70  79 S8        30.06S
CAMP DOUGLAS   MOSUNNY   77  70  78 E9        30.02F
$$

WIZ011>013-019>022-031-037>040-048>050-211700-
NORTHEAST WISCONSIN

CITY           SKY/WX    TMP DP  RH WIND       PRES   REMARKS
ANTIGO         PTSUNNY   70  62  76 E5        30.07F
SHAWANO        CLOUDY    74  66  77 N3        30.06R
OCONTO         CLOUDY    76  66  71 NE3       30.04S
STURGEON BAY   CLOUDY    74  70  87 CALM      30.05F
GREEN BAY      CLOUDY    74  71  91 SW3       30.05F
MANITOWOC        N/A    N/A N/A N/A MISG        N/A
APPLETON       PTSUNNY   72  68  88 SW5       30.05F
CLINTONVILLE   CLOUDY    77  68  73 SE5       30.04F
OSHKOSH        CLOUDY    75  67  76 VRB5      30.07S
$$

WIZ032>034-041-042-053>061-211700-
SOUTHWEST WISCONSIN

CITY           SKY/WX    TMP DP  RH WIND       PRES   REMARKS
LA CROSSE      CLOUDY    81  69  67 CALM      30.01F HX  84
SPARTA         CLOUDY    76  67  75 E3        30.02F
VIROQUA        CLOUDY    73  70  89 CALM      30.03F
BOSCOBEL       PTSUNNY   73  67  81 N5        30.03F
PRAIRIE DU CHI CLOUDY    72  66  81 CALM      30.03S
PLATTEVILLE    CLOUDY    72  71  97 E8        30.05R
$$

WIZ056-057-062-063-064-067-068-211700-
SOUTH CENTRAL WISCONSIN

CITY           SKY/WX    TMP DP  RH WIND       PRES   REMARKS
REEDSBURG      CLOUDY    74  70  88 E5        30.04F
BARABOO/DELLS  CLOUDY    75  67  76 NE7       30.05F
LONE ROCK      CLOUDY    72  70  93 E8        30.02F
MINERAL POINT  CLOUDY    73  72  94 CALM      30.06S
MADISON        CLOUDY    76  69  79 NE5       30.06F
MIDDLETON      CLOUDY    76  72  86 NE5       30.06F
WATERTOWN      CLOUDY    74  72  91 W5        30.09S
MONROE         CLOUDY    73  70  88 NE3       30.08R
JANESVILLE     CLOUDY    75  72  88 N7        30.05F
$$

WIZ051-052-058>065-066-070>072-211700-
SOUTHEAST WISCONSIN

CITY           SKY/WX    TMP DP  RH WIND       PRES   REMARKS
MILWAUKEE      CLOUDY    81  70  69 NW8       30.06S HX  84
WAUKESHA       MOSUNNY   75  68  78 W7        30.10R
MILWAUKEE/TIMM SUNNY     79  66  65 W8        30.08R HX  81
RACINE         CLOUDY    79  71  76 W9        30.08R HX  82
KENOSHA        CLOUDY    79  71  76 W10       30.08R HX  82
FOND DU LAC    PTSUNNY   76  66  71 W5        30.08R
SHEBOYGAN      CLOUDY    79  68  69 NW7       30.06S HX  81
WEST BEND      CLOUDY    75  68  78 W8        30.07S
JUNEAU         CLOUDY    74  68  81 W5        30.09F
$$

LSZ147-162-211700-
LAKE SUPERIOR

STATION/POSITION TIME  TEMP    WIND        PRES    WAVE
                       AIR SEA DIR/SP/G            HT/PER
                 (UTC) (F)     (DEG/KT/KT) (MB)    (FT/S)
W MID LAKE BUOY  1550   61 60  220/  4/  6 1016.8F   0
DEVILS ISLAND    1600   64     230/  3/  6 1017.0F
SAXON HARBOR     1540   68      30/  2/  3 1016.6F
$$

LMZ867-665-643>646-211700-
LAKE MICHIGAN

STATION/POSITION TIME  TEMP    WIND        PRES    WAVE
                       AIR SEA DIR/SP/G            HT/PER
                 (UTC) (F)     (DEG/KT/KT) (MB)    (FT/S)
S GREEN BAY BUOY 1600   71 72  260/  2/  2 1017.2
N MID LAKE BUOY  1550   69 69  220/  4/  4 1018.0R   1/ 4
NORTHPORT PIER   1540   73     320/  5/  6 1017.3R
KEWAUNEE LAKESHO 1554   76      CALM  /  3 1016.4F
SHEBOYGAN LAKESH 1600   71     160/  6/  6 1017.4S
PORT WASHINGTON  1530   76      70/  3/  4 1018.3F
ATWATER BUOY     1509   71 70   40/  4/  4 1017.9F
MILWAUKEE LAKESH 1600   78     290/  6/  8   N/A
S MID LAKE BUOY  1550   72 72  230/  6/  8 1018.1R   1
KENOSHA   LAKESH 1600   78     280/ 10/ 14 1017.9
$$

TC  - TEMPERATURE IN CELSIUS
VSB - VISIBILITY IN STATUTE MILES
WCI - WIND CHILL INDEX
HX  - HEAT INDEX




USA.gov is the U.S. government's official web portal to all federal, state and local government web resources and services.